Orlando International, FL

9:18 AM EDT on July 25, 2017 (GMT -0400)
Orlando International

Weather History for KMCO - May, 2013

Change the Weather History Date:

Monday, May 27, 2013

  Actual Average Record
Temperature  
Mean Temperature 76 °F 79 °F  
Max Temperature 85 °F 90 °F 100 °F (1962)
Min Temperature 66 °F 69 °F 53 °F (1979)
Degree Days  
Heating Degree Days 0 0  
Month to date heating degree days 0 0  
Since 1 July heating degree days 461 570  
Cooling Degree Days 11 14  
Month to date cooling degree days 282 321  
Year to date cooling degree days 818 742  
Growing Degree Days 25 (Base 50)    
Moisture  
Dew Point 62 °F    
Average Humidity 66    
Maximum Humidity 87    
Minimum Humidity 44    
Precipitation  
Precipitation 0.00 in 0.17 in 2.20 in (1938)
Month to date precipitation 4.47 2.74  
Year to date precipitation 10.29 13.92  
Sea Level Pressure  
Sea Level Pressure 30.17 in    
Wind  
Wind Speed 8 mph (East)    
Max Wind Speed 17 mph    
Max Gust Speed 23 mph    
Visibility 10 miles    
Events      
T = Trace of Precipitation, MM = Missing Value Source: NWS Daily Summary

Daily Weather History Graph

Daily Weather History Graph

Search for Another Location

Airport or City:

Trip Planner

Search our weather history database for the weather conditions in past years. The results will help you decide how hot, cold, wet, or windy it might be!

Date:

Astronomy

May. 27, 2013 Rise Set
Actual Time 6:29 AM EDT 8:15 PM EDT
Civil Twilight 6:03 AM EDT 8:42 PM EDT
Nautical Twilight 5:31 AM EDT 9:13 PM EDT
Astronomical Twilight 4:58 AM EDT 9:47 PM EDT
Moon 10:59 PM EDT (5/27) 9:01 AM EDT (5/27)
Length of Visible Light 14h 39m
Length of Day
13h 46m
Waning Gibbous, 91% of the Moon is Illuminated
May 27
Waning Gibbous
May 31
Last Quarter
Jun 8
New
Jun 16
First Quarter
Jun 23
Full

Hourly Weather History & Observations

Time (EDT) Temp. Heat Index Dew Point Humidity Pressure Visibility Wind Dir Wind Speed Gust Speed Precip Events Conditions
12:53 AM 68.0 °F - 62.6 °F 83% 30.20 in 10.0 mi East 3.5 mph - N/A   Mostly Cloudy
1:53 AM 68.0 °F - 62.6 °F 83% 30.19 in 10.0 mi Calm Calm - N/A   Mostly Cloudy
2:53 AM 66.2 °F - 62.6 °F 88% 30.18 in 10.0 mi Calm Calm - N/A   Mostly Cloudy
3:53 AM 69.1 °F - 62.1 °F 78% 30.17 in 7.0 mi ENE 3.5 mph - N/A   Mostly Cloudy
4:53 AM 68.0 °F - 63.0 °F 84% 30.16 in 10.0 mi Calm Calm - N/A   Mostly Cloudy
5:53 AM 66.0 °F - 62.1 °F 87% 30.17 in 10.0 mi Calm Calm - N/A   Mostly Cloudy
6:53 AM 66.9 °F - 63.0 °F 87% 30.18 in 7.0 mi Calm Calm - N/A   Mostly Cloudy
7:53 AM 71.1 °F - 63.0 °F 75% 30.19 in 10.0 mi East 4.6 mph - N/A   Mostly Cloudy
8:53 AM 75.0 °F - 63.0 °F 66% 30.19 in 10.0 mi ENE 10.4 mph - N/A   Mostly Cloudy
9:53 AM 79.0 °F - 62.1 °F 56% 30.19 in 10.0 mi East 12.7 mph 19.6 mph N/A   Mostly Cloudy
10:53 AM 81.0 °F 81.7 °F 61.0 °F 50% 30.19 in 10.0 mi East 13.8 mph - N/A   Scattered Clouds
11:53 AM 82.0 °F 82.7 °F 61.0 °F 49% 30.20 in 10.0 mi ESE 12.7 mph - N/A   Scattered Clouds
12:53 PM 84.0 °F 84.0 °F 60.1 °F 44% 30.20 in 10.0 mi ESE 15.0 mph 19.6 mph N/A   Scattered Clouds
1:53 PM 84.0 °F 84.0 °F 60.1 °F 44% 30.18 in 10.0 mi ENE 12.7 mph - N/A   Scattered Clouds
2:53 PM 84.0 °F 84.0 °F 60.1 °F 44% 30.16 in 10.0 mi ESE 11.5 mph - N/A   Scattered Clouds
3:53 PM 84.0 °F 84.4 °F 61.0 °F 46% 30.15 in 10.0 mi ESE 13.8 mph 20.7 mph N/A   Scattered Clouds
4:53 PM 82.9 °F 83.3 °F 61.0 °F 47% 30.14 in 10.0 mi ESE 16.1 mph 23.0 mph N/A   Scattered Clouds
5:53 PM 82.9 °F 83.2 °F 60.1 °F 46% 30.12 in 10.0 mi East 11.5 mph - N/A   Scattered Clouds
6:53 PM 80.1 °F 81.2 °F 62.1 °F 54% 30.12 in 10.0 mi East 12.7 mph - N/A   Mostly Cloudy
7:53 PM 77.0 °F - 63.0 °F 62% 30.14 in 10.0 mi East 12.7 mph - N/A   Mostly Cloudy
8:53 PM 73.9 °F - 64.0 °F 71% 30.14 in 10.0 mi East 10.4 mph - N/A   Mostly Cloudy
9:53 PM 73.0 °F - 64.0 °F 73% 30.16 in 10.0 mi East 9.2 mph - N/A   Mostly Cloudy
10:53 PM 71.1 °F - 64.0 °F 78% 30.17 in 10.0 mi ENE 5.8 mph - N/A   Scattered Clouds
11:53 PM 71.1 °F - 64.9 °F 81% 30.17 in 9.0 mi East 6.9 mph - N/A   Scattered Clouds